OISY  Yasouj Airport

Add Bookmark

Iran

Status
Operational
Latitude Longitude
30° 42' 1" N 51° 32' 42" E
30.700500 51.545101
Local (DST + 5) UTC (GMT + 4)
Oct 1, 2014 11:40 Oct 1, 2014 08:10
Sunrise-Sunset Local UTC
Begin Civil Twilight 05:32 02:02
Sunrise 05:56 02:26
Sunset 05:50 14:20
End Civil Twilight 06:14 14:44

Current Weather

METAR Observed VFR
OISY 010700Z 00000KT CAVOK 25/M04 Q1025 Wed, Oct 1, 2014 @ 07:00 UTC
(1 Hour, 10 Minutes ago)
Visual Flight Rules
Wind Visibility Clouds Conditions
Calm 10 km or more
  • Clear skies
  • No significant weather
Temperatures Readings Precipitation
Current Temp 25°C (77°F)
Dewpoint -4°C (25°F)
Humidity 14%
Altimeter 30.27"Hg
Sea Level Pressure 1025mb
Field Elevation 5941.6'
None Recorded

Additional weather within a 92.6km radius of OISY

Map ICAO Location
OIAH 79.6km W (240°)

24 Hour Weather History

Loading
-

24 Hour Weather Graphs

Loading
-

CheckWX.com is intended as a tool to help pilots better visualize weather data. It is not intended as a substitute for an official weather briefing obtained from a Flight Service Station. CheckWX.com does not meet the FAA requirements for an official pre-flight weather briefing. Therefore, it's important that pilots still call and obtain an official FSS pre-flight weather briefing.